User: anonymous   Login
Location: Caltech
(34.1382°N, 118.1253°W)
Time: 22:36:46
(UTC-07:00)
Language:

Tiros 1 despin weight - Orbit

View from above orbital plane
View from above orbital plane
View from above satellite
View from above satellite

Ground track
Ground track

The orbit data is extracted from the following two-line orbital elements,

1 00115U 60002D   16244.47682419  .00000166  00000-0  47408-4 0  9993
2 00115  48.1667  95.7279 0035228 263.3715  96.3187 14.82857227  7228
Epoch (UTC): 31 August 2016 11:26:37
Eccentricity: 0.0035228
inclination: 48.1667°
perigee height: 595 km
apogee height: 645 km
right ascension of ascending node: 95.7279°
argument of perigee: 263.3715°
revolutions per day: 14.82857227
mean anomaly at epoch: 96.3187°
orbit number at epoch: 722

The dashed part of the orbit path shows where the satellite is in the earth's shadow,  

DLR